New Orleans Lakefront, LA

7:34 PM CDT on June 25, 2017 (GMT -0500)
Lakefront

Weather History for KNEW - July, 2013

Change the Weather History Date:

Sunday, July 14, 2013

  Actual Average Record
Temperature  
Mean Temperature 82 °F 83 °F  
Max Temperature 88 °F 91 °F 99 °F (1980)
Min Temperature 76 °F 75 °F 65 °F (1990)
Degree Days  
Heating Degree Days 0 0  
Month to date heating degree days 0 0  
Since 1 June heating degree days 0 0  
Since 1 July heating degree days 0 0  
Cooling Degree Days 17 18  
Month to date cooling degree days 231 252  
Year to date cooling degree days 1265 1366  
Since 1 June cooling degree days 772 747  
Growing Degree Days 31 (Base 50)    
Moisture  
Dew Point 72 °F    
Average Humidity 70    
Maximum Humidity 85    
Minimum Humidity 55    
Precipitation  
Precipitation T in 0.18 in 2.39 in (1995)
Month to date precipitation 1.96 2.92  
Year to date precipitation 41.08 35.22  
Snow  
Snow 0.00 in - - ()
Month to date snowfall 0.0  
Since 1 June snowfall 0.0  
Since 1 July snowfall 0.0  
Snow Depth 0.00 in    
Sea Level Pressure  
Sea Level Pressure 29.96 in    
Wind  
Wind Speed 6 mph (SE)    
Max Wind Speed 17 mph    
Max Gust Speed 22 mph    
Visibility 9 miles    
Events Rain , Thunderstorm    
T = Trace of Precipitation, MM = Missing Value Source: NWS Daily Summary

Daily Weather History Graph

Daily Weather History Graph

Search for Another Location

Airport or City:

Trip Planner

Search our weather history database for the weather conditions in past years. The results will help you decide how hot, cold, wet, or windy it might be!

Date:

Astronomy

Jul. 14, 2013 Rise Set
Actual Time 6:08 AM CDT 8:03 PM CDT
Civil Twilight 5:41 AM CDT 8:29 PM CDT
Nautical Twilight 5:09 AM CDT 9:02 PM CDT
Astronomical Twilight 4:34 AM CDT 9:36 PM CDT
Moon 11:54 AM CDT (7/14) 11:48 PM CDT (7/14)
Length of Visible Light 14h 48m
Length of Day
13h 54m
Waxing Crescent, 35% of the Moon is Illuminated
Jul 14
Waxing Crescent
Jul 15
First Quarter
Jul 22
Full
Jul 29
Last Quarter
Aug 6
New

Hourly Weather History & Observations

Time (CDT) Temp. Heat Index Dew Point Humidity Pressure Visibility Wind Dir Wind Speed Gust Speed Precip Events Conditions
12:53 AM 81.0 °F 86.7 °F 75.0 °F 82% 29.89 in 10.0 mi ESE 10.4 mph - N/A   Clear
1:53 AM 79.0 °F - 73.9 °F 84% 29.90 in 10.0 mi SSE 6.9 mph - N/A   Clear
2:53 AM 79.0 °F - 72.0 °F 79% 29.90 in 10.0 mi ESE 9.2 mph - N/A   Clear
3:53 AM 80.1 °F 84.2 °F 73.0 °F 79% 29.90 in 10.0 mi ESE 6.9 mph - N/A   Clear
4:53 AM 77.0 °F - 72.0 °F 84% 29.91 in 10.0 mi South 5.8 mph - N/A   Clear
5:53 AM 77.0 °F - 73.0 °F 88% 29.91 in 10.0 mi SSE 4.6 mph - N/A   Clear
6:53 AM 78.1 °F - 73.0 °F 84% 29.93 in 10.0 mi ESE 5.8 mph - N/A   Clear
7:53 AM 81.0 °F 85.8 °F 73.0 °F 77% 29.94 in 10.0 mi SSE 8.1 mph - N/A   Clear
8:53 AM 84.0 °F 90.2 °F 73.0 °F 69% 29.95 in 10.0 mi ESE 8.1 mph - N/A   Clear
9:53 AM 84.9 °F 91.4 °F 73.0 °F 67% 29.95 in 10.0 mi ESE 10.4 mph - N/A   Scattered Clouds
10:53 AM 84.9 °F 92.1 °F 73.9 °F 69% 29.97 in 10.0 mi ESE 5.8 mph - N/A   Scattered Clouds
11:00 AM 84.2 °F 90.9 °F 73.4 °F 70% 29.99 in 10.0 mi East 8.1 mph - N/A   Mostly Cloudy
11:09 AM 80.6 °F 85.4 °F 73.4 °F 79% 29.99 in 10.0 mi East 13.8 mph 25.3 mph 0.19 in Rain Heavy Rain
11:23 AM 80.6 °F 84.6 °F 71.6 °F 74% 30.00 in 10.0 mi Calm Calm - 0.25 in Rain Rain
11:32 AM 80.6 °F 84.6 °F 71.6 °F 74% 30.00 in 10.0 mi SSE 10.4 mph 19.6 mph 0.27 in Rain , Thunderstorm Light Thunderstorms and Rain
11:38 AM 77.0 °F - 68.0 °F 74% 30.01 in 1.5 mi South 20.7 mph 40.3 mph 0.37 in Rain , Thunderstorm Light Thunderstorms and Rain
11:46 AM 75.2 °F - 64.4 °F 69% 30.01 in 5.0 mi WSW 21.9 mph 32.2 mph 0.51 in Rain , Thunderstorm Heavy Thunderstorms and Rain
11:53 AM 75.9 °F - 66.0 °F 71% 30.00 in 3.0 mi SSW 8.1 mph 32.2 mph 0.59 in Rain , Thunderstorm Thunderstorms and Rain
12:23 PM 75.2 °F - 66.2 °F 73% 30.00 in 9.0 mi ESE 11.5 mph - N/A Rain Light Rain
12:53 PM 79.0 °F - 72.0 °F 79% 29.98 in 10.0 mi ESE 6.9 mph - N/A   Overcast
1:53 PM 84.9 °F 90.7 °F 72.0 °F 65% 29.97 in 10.0 mi East 11.5 mph - N/A   Mostly Cloudy
2:40 PM 80.6 °F 83.9 °F 69.8 °F 70% 29.99 in 10.0 mi NNE 19.6 mph 26.5 mph 0.01 in   Mostly Cloudy
2:53 PM 82.0 °F 85.5 °F 69.1 °F 65% 29.98 in 10.0 mi NE 5.8 mph - 0.01 in   Mostly Cloudy
3:53 PM 87.1 °F 93.6 °F 72.0 °F 61% 29.95 in 10.0 mi ESE 4.6 mph - 0.00 in   Partly Cloudy
4:53 PM 87.1 °F 93.6 °F 72.0 °F 61% 29.94 in 10.0 mi SE 9.2 mph - N/A   Clear
5:53 PM 86.0 °F 92.2 °F 72.0 °F 63% 29.94 in 10.0 mi SE 10.4 mph - N/A   Clear
6:53 PM 84.9 °F 91.4 °F 73.0 °F 67% 29.95 in 10.0 mi SE 9.2 mph - N/A   Clear
7:53 PM 82.9 °F 89.4 °F 73.9 °F 74% 29.96 in 10.0 mi SE 9.2 mph - N/A   Clear
8:53 PM 82.9 °F 88.8 °F 73.0 °F 72% 29.97 in 10.0 mi ESE 8.1 mph - N/A   Clear
9:53 PM 82.0 °F 87.9 °F 73.9 °F 76% 30.00 in 10.0 mi ESE 8.1 mph - N/A   Clear
10:53 PM 82.0 °F 87.9 °F 73.9 °F 76% 30.00 in 10.0 mi SE 8.1 mph - N/A   Clear
11:53 PM 80.1 °F 85.1 °F 75.0 °F 85% 29.99 in 10.0 mi SE 5.8 mph - N/A   Clear